User: anonymous   Login
Location: Ostrava
(49.8330°N, 18.2830°E)
Time: 06:56:11
(UTC+01:00)
Language:

NOAA 19 - Orbit

View from above orbital plane
View from above orbital plane
View from above satellite
View from above satellite

Ground track
Ground track

The orbit data is extracted from the following two-line orbital elements,

1 33591U 09005A   14298.12380566  .00000571  00000-0  33715-3 0  4361
2 33591 098.9593 242.8510 0015040 111.8106 009.4447 14.11786457294328
Epoch (UTC): 25 October 2014 02:58:16
Eccentricity: 0.0015040
inclination: 98.9593°
perigee height: 842 km
apogee height: 864 km
right ascension of ascending node: 242.8510°
argument of perigee: 111.8106°
revolutions per day: 14.11786457
mean anomaly at epoch: 9.4447°
orbit number at epoch: 29432

The dashed part of the orbit path shows where the satellite is in the earth's shadow,  

DLR